Date,Time,Wetness (Wet Dry or Ice),Wind Speed (m/s),Temperature (C),Humidity (%),Pressure (mb),Radiation (W/m^2)
2022-11-13,06:25:00,DRY,4.80,7.35,28.5,773.00,1.2
2022-11-13,06:30:00,DRY,3.87,7.40,27.3,773.00,1.0
2022-11-13,06:35:00,DRY,2.10,7.35,28.0,773.00,0.4
2022-11-13,06:40:00,DRY,2.57,7.03,30.7,773.00,1.5
2022-11-13,06:45:00,DRY,2.95,6.80,30.5,773.00,1.0
2022-11-13,06:50:00,DRY,3.13,7.00,29.3,773.00,0.8
2022-11-13,06:55:00,DRY,1.25,7.30,27.5,773.00,0.8
2022-11-13,07:00:00,DRY,6.03,7.27,27.3,773.00,1.9
2022-11-13,07:05:00,DRY,6.85,7.35,27.0,773.00,1.5
2022-11-13,07:10:00,DRY,4.87,7.50,26.3,773.00,1.4
2022-11-13,07:15:00,DRY,5.60,7.55,26.5,773.00,1.4
2022-11-13,07:20:00,DRY,7.40,7.63,25.7,773.00,2.4
2022-11-13,07:25:00,DRY,5.55,7.60,27.0,773.00,3.3
2022-11-13,07:30:00,DRY,4.93,7.27,27.7,773.00,5.6
2022-11-13,07:35:00,DRY,4.50,7.20,28.5,773.00,8.3
2022-11-13,07:40:00,DRY,5.17,7.17,29.3,773.00,13.0
2022-11-13,07:45:00,DRY,5.00,7.15,28.0,773.00,18.5
2022-11-13,07:50:00,DRY,3.60,7.57,26.0,773.00,26.0
2022-11-13,07:55:00,DRY,3.80,7.70,25.5,773.00,34.2
2022-11-13,08:00:00,DRY,4.77,8.07,23.7,773.00,43.2
2022-11-13,08:05:00,DRY,3.70,8.10,25.0,773.00,52.5
2022-11-13,08:10:00,DRY,6.03,8.17,25.0,773.00,146.8
2022-11-13,08:15:00,DRY,4.85,7.85,27.0,773.00,165.9
2022-11-13,08:20:00,DRY,4.40,7.87,26.0,773.00,129.2
2022-11-13,08:25:00,DRY,4.40,7.85,27.0,773.00,111.2
2022-11-13,08:30:00,DRY,4.60,7.70,27.7,773.67,107.7
2022-11-13,08:35:00,DRY,3.80,7.80,26.5,774.00,113.2
2022-11-13,08:40:00,DRY,3.93,7.90,26.0,774.00,122.2
2022-11-13,08:45:00,DRY,2.15,7.85,26.5,774.00,131.6
2022-11-13,08:50:00,DRY,3.63,7.63,28.7,774.00,146.5
2022-11-13,08:55:00,DRY,3.90,7.55,28.5,774.00,173.3
2022-11-13,09:00:00,DRY,3.80,7.77,28.0,774.00,222.2
2022-11-13,09:05:00,DRY,1.40,7.90,28.0,774.00,352.1
2022-11-13,09:10:00,DRY,2.43,8.20,28.0,774.00,431.4
2022-11-13,09:15:00,DRY,2.90,8.30,28.0,774.00,401.4
2022-11-13,09:20:00,DRY,2.90,8.30,28.0,774.00,401.4
2022-11-13,09:25:00,DRY,2.90,8.30,28.0,774.00,401.4
2022-11-13,09:30:00,DRY,2.90,8.30,28.0,774.00,401.4
2022-11-13,09:35:00,DRY,2.90,8.30,28.0,774.00,401.4
2022-11-13,09:40:00,DRY,2.90,8.30,28.0,774.00,401.4
2022-11-13,09:45:00,DRY,2.90,8.30,28.0,774.00,401.4
2022-11-13,09:50:00,DRY,2.90,8.30,28.0,774.00,401.4
2022-11-13,09:55:00,DRY,2.90,8.30,28.0,774.00,401.4
2022-11-13,10:00:00,DRY,2.90,8.30,28.0,774.00,401.4
2022-11-13,10:05:00,DRY,2.90,8.30,28.0,774.00,401.4
2022-11-13,10:10:00,DRY,2.90,8.30,28.0,774.00,401.4
2022-11-13,10:15:00,DRY,2.90,8.30,28.0,774.00,401.4
2022-11-13,10:20:00,DRY,2.90,8.30,28.0,774.00,401.4
2022-11-13,10:25:00,DRY,2.90,8.30,28.0,774.00,401.4
2022-11-13,10:30:00,DRY,2.90,8.30,28.0,774.00,401.4
2022-11-13,10:35:00,DRY,2.90,8.30,28.0,774.00,401.4
2022-11-13,10:40:00,DRY,2.90,8.30,28.0,774.00,401.4
2022-11-13,10:45:00,DRY,2.90,8.30,28.0,774.00,401.4
2022-11-13,10:50:00,DRY,2.90,8.30,28.0,774.00,401.4
2022-11-13,10:55:00,DRY,2.90,8.30,28.0,774.00,401.4
2022-11-13,11:00:00,DRY,2.90,8.30,28.0,774.00,401.4
2022-11-13,11:05:00,DRY,2.90,8.30,28.0,774.00,401.4
2022-11-13,11:10:00,DRY,2.90,8.30,28.0,774.00,401.4
2022-11-13,11:15:00,DRY,2.90,8.30,28.0,774.00,401.4
2022-11-13,11:20:00,DRY,2.90,8.30,28.0,774.00,401.4
2022-11-13,11:25:00,DRY,2.90,8.30,28.0,774.00,401.4
2022-11-13,11:30:00,DRY,2.90,8.30,28.0,774.00,401.4
2022-11-13,11:35:00,DRY,2.90,8.30,28.0,774.00,401.4
2022-11-13,11:40:00,DRY,2.90,8.30,28.0,774.00,401.4
2022-11-13,11:45:00,DRY,2.90,8.30,28.0,774.00,401.4
2022-11-13,11:50:00,DRY,2.90,8.30,28.0,774.00,401.4
2022-11-13,11:55:00,DRY,2.90,8.30,28.0,774.00,401.4
2022-11-13,12:00:00,DRY,2.90,8.30,28.0,774.00,401.4
2022-11-13,12:05:00,DRY,2.90,8.30,28.0,774.00,401.4
2022-11-13,12:10:00,DRY,2.90,8.30,28.0,774.00,401.4
2022-11-13,12:15:00,DRY,2.90,8.30,28.0,774.00,401.4
2022-11-13,12:20:00,DRY,2.90,8.30,28.0,774.00,401.4
2022-11-13,12:25:00,DRY,2.90,8.30,28.0,774.00,401.4
2022-11-13,12:30:00,DRY,2.90,8.30,28.0,774.00,401.4
2022-11-13,12:35:00,DRY,2.90,8.30,28.0,774.00,401.4
2022-11-13,12:40:00,DRY,5.23,9.90,41.0,774.00,779.7
2022-11-13,12:45:00,DRY,3.50,9.70,41.5,773.50,712.0
2022-11-13,12:50:00,DRY,3.40,9.60,42.0,774.00,690.0
2022-11-13,12:55:00,DRY,3.40,9.60,42.0,774.00,690.0
2022-11-13,13:00:00,DRY,5.70,9.90,43.7,773.33,775.3
2022-11-13,13:05:00,DRY,5.50,9.80,45.0,773.00,778.5
2022-11-13,13:10:00,DRY,4.43,9.97,46.3,773.00,775.0
2022-11-13,13:15:00,DRY,6.60,9.80,47.5,773.00,772.0
2022-11-13,13:20:00,DRY,2.43,9.83,47.7,773.00,770.7
2022-11-13,13:25:00,DRY,4.95,9.80,48.0,773.00,766.5
2022-11-13,13:30:00,DRY,2.80,9.80,47.5,773.00,764.0
2022-11-13,13:35:00,DRY,10.40,9.60,49.0,773.00,759.0
2022-11-13,13:40:00,DRY,3.60,9.87,48.7,773.00,752.7
2022-11-13,13:45:00,DRY,7.40,9.90,49.0,772.50,747.5
2022-11-13,13:50:00,DRY,5.80,9.90,49.3,773.00,742.0
2022-11-13,13:55:00,DRY,7.85,9.90,48.0,773.00,738.0
2022-11-13,14:00:00,DRY,4.37,10.00,48.0,773.00,728.3
2022-11-13,14:05:00,DRY,4.95,9.95,49.0,773.00,720.0
2022-11-13,14:10:00,DRY,6.73,9.97,50.7,773.00,715.0
2022-11-13,14:15:00,DRY,3.50,9.90,52.5,773.00,704.0
2022-11-13,14:20:00,DRY,4.90,9.97,54.0,773.00,693.7
2022-11-13,14:25:00,DRY,2.40,9.85,55.5,773.00,679.0
2022-11-13,14:30:00,DRY,2.93,9.93,54.7,773.00,674.7
2022-11-13,14:35:00,DRY,4.10,9.80,59.5,773.00,663.0
2022-11-13,14:40:00,DRY,5.60,9.70,62.0,773.00,652.7
2022-11-13,14:45:00,DRY,3.10,9.45,63.0,773.00,644.5
2022-11-13,14:50:00,DRY,4.07,9.30,65.3,773.00,633.7
2022-11-13,14:55:00,DRY,5.45,9.20,67.5,773.00,625.0
2022-11-13,15:00:00,DRY,5.30,9.13,70.7,773.00,610.0
2022-11-13,15:05:00,DRY,4.40,9.10,73.0,773.00,594.5
2022-11-13,15:10:00,DRY,4.90,8.87,71.7,773.00,583.7
2022-11-13,15:15:00,DRY,4.70,8.60,73.0,773.00,570.0
2022-11-13,15:20:00,DRY,3.47,8.77,68.3,773.00,555.7
2022-11-13,15:25:00,DRY,3.95,9.05,60.5,773.00,542.0
2022-11-13,15:30:00,DRY,2.30,9.00,56.3,773.00,527.7
2022-11-13,15:35:00,DRY,3.95,9.20,54.5,773.00,512.5
2022-11-13,15:40:00,DRY,4.10,9.03,52.3,772.67,498.7
2022-11-13,15:45:00,DRY,6.40,8.85,52.0,772.00,486.0
2022-11-13,15:50:00,DRY,5.57,8.77,52.0,772.67,470.7
2022-11-13,15:55:00,DRY,4.30,8.85,52.0,773.00,453.5
2022-11-13,16:00:00,DRY,8.27,8.80,51.7,773.00,439.3
2022-11-13,16:05:00,DRY,4.70,8.70,52.0,772.50,423.0
2022-11-13,16:10:00,DRY,3.93,8.63,53.0,773.00,406.7
2022-11-13,16:15:00,DRY,7.40,8.60,52.5,772.50,388.0
2022-11-13,16:20:00,DRY,5.97,8.50,53.0,772.67,371.7
2022-11-13,16:25:00,DRY,6.85,8.30,53.0,773.00,356.5
2022-11-13,16:30:00,DRY,2.70,8.33,54.0,773.00,334.7
2022-11-13,16:35:00,DRY,1.90,8.25,54.0,773.00,318.0
2022-11-13,16:40:00,DRY,4.53,8.10,54.3,772.67,299.3
2022-11-13,16:45:00,DRY,4.30,8.15,54.5,773.00,284.0
2022-11-13,16:50:00,DRY,7.30,8.00,55.0,773.00,264.0
2022-11-13,16:55:00,DRY,3.20,7.90,55.5,773.00,247.5
2022-11-13,17:00:00,DRY,7.33,8.10,55.3,772.00,223.7
2022-11-13,17:05:00,DRY,4.30,8.20,55.0,773.00,212.5
2022-11-13,17:10:00,DRY,4.43,8.00,54.7,772.33,191.0
2022-11-13,17:15:00,DRY,5.85,7.70,54.5,773.00,175.5
2022-11-13,17:20:00,DRY,6.40,7.73,52.7,772.67,155.7
2022-11-13,17:25:00,DRY,2.00,7.90,52.0,772.50,135.5
2022-11-13,17:30:00,DRY,6.47,7.67,53.0,772.67,119.3
2022-11-13,17:35:00,DRY,2.75,7.50,54.0,773.00,102.0
2022-11-13,17:40:00,DRY,3.93,7.50,54.0,773.00,86.3
2022-11-13,17:45:00,DRY,6.40,7.65,54.5,773.00,67.5
2022-11-13,17:50:00,DRY,4.20,7.60,55.0,773.00,52.3
2022-11-13,17:55:00,DRY,4.00,7.50,55.0,773.00,37.0
2022-11-13,18:00:00,DRY,2.90,7.27,56.0,773.00,25.0
2022-11-13,18:05:00,DRY,6.15,7.20,56.0,772.50,18.0
2022-11-13,18:10:00,DRY,4.07,7.30,54.3,773.00,11.7
2022-11-13,18:15:00,DRY,3.20,7.40,54.0,773.00,5.5
2022-11-13,18:20:00,DRY,3.13,7.27,54.3,773.00,0.3
2022-11-13,18:25:00,DRY,6.80,7.50,51.5,773.00,0.0
2022-11-13,18:30:00,DRY,7.43,7.67,50.7,773.00,0.0
2022-11-13,18:35:00,DRY,4.00,7.85,48.5,773.00,0.0
2022-11-13,18:40:00,DRY,6.50,7.73,49.3,773.00,0.0
2022-11-13,18:45:00,DRY,7.80,7.70,49.5,773.00,0.0
2022-11-13,18:50:00,DRY,3.60,7.70,49.3,773.00,0.0
2022-11-13,18:55:00,DRY,8.95,7.70,49.5,773.00,0.0
2022-11-13,19:00:00,DRY,5.07,7.50,51.3,773.00,0.0
2022-11-13,19:05:00,DRY,8.30,7.50,51.0,773.00,0.0
2022-11-13,19:10:00,DRY,7.00,7.47,51.3,773.00,0.0
2022-11-13,19:15:00,DRY,7.45,7.45,51.0,773.00,0.0
2022-11-13,19:20:00,DRY,5.50,7.50,51.0,773.00,0.0
2022-11-13,19:25:00,DRY,4.40,7.55,50.5,773.00,0.0
2022-11-13,19:30:00,DRY,7.40,7.63,49.7,773.00,0.0
2022-11-13,19:35:00,DRY,4.50,7.75,49.0,773.00,0.0
2022-11-13,19:40:00,DRY,5.63,7.70,48.7,773.00,0.0
2022-11-13,19:45:00,DRY,4.70,7.80,48.5,773.00,0.0
2022-11-13,19:50:00,DRY,6.53,7.90,47.7,773.00,0.0
2022-11-13,19:55:00,DRY,7.45,7.95,46.5,773.00,0.0
2022-11-13,20:00:00,DRY,6.47,7.93,46.7,773.33,0.0
2022-11-13,20:05:00,DRY,8.50,7.95,46.5,774.00,0.0
2022-11-13,20:10:00,DRY,3.90,7.90,47.0,774.00,0.0
2022-11-13,20:15:00,DRY,9.90,7.95,47.5,773.50,0.0
2022-11-13,20:20:00,DRY,7.97,7.90,47.7,773.67,0.0
2022-11-13,20:25:00,DRY,5.40,7.90,47.5,774.00,0.0
2022-11-13,20:30:00,DRY,9.00,8.00,47.0,774.00,0.0
2022-11-13,20:35:00,DRY,7.55,7.95,47.5,774.00,0.0
2022-11-13,20:40:00,DRY,6.37,7.87,48.0,774.00,0.0
2022-11-13,20:45:00,DRY,5.50,8.00,45.0,774.00,0.0
2022-11-13,20:50:00,DRY,6.37,8.13,44.7,774.00,0.0
2022-11-13,20:55:00,DRY,5.95,8.15,45.0,774.00,0.0
2022-11-13,21:00:00,DRY,5.60,8.10,44.7,774.00,0.0
2022-11-13,21:05:00,DRY,6.40,8.10,44.5,774.00,0.0
2022-11-13,21:10:00,DRY,4.90,8.27,43.0,774.00,0.0
2022-11-13,21:15:00,DRY,6.15,8.35,43.0,774.00,0.0
2022-11-13,21:20:00,DRY,9.63,8.37,43.0,774.00,0.0
2022-11-13,21:25:00,DRY,2.95,8.25,44.0,774.50,0.0
2022-11-13,21:30:00,DRY,5.23,8.27,43.7,774.00,0.0
2022-11-13,21:35:00,DRY,5.60,8.40,42.5,774.50,0.0
2022-11-13,21:40:00,DRY,2.47,8.27,42.7,774.33,0.0
2022-11-13,21:45:00,DRY,4.75,8.30,43.0,774.00,0.0
2022-11-13,21:50:00,DRY,4.27,8.30,42.3,774.67,0.0
2022-11-13,21:55:00,DRY,6.05,8.35,42.5,774.50,0.0
2022-11-13,22:00:00,DRY,5.63,8.30,43.0,774.00,0.0
2022-11-13,22:05:00,DRY,3.40,8.30,42.0,775.00,0.0
2022-11-13,22:10:00,DRY,1.87,8.27,42.7,774.67,0.0
2022-11-13,22:15:00,DRY,2.30,8.30,42.5,774.50,0.0
2022-11-13,22:20:00,DRY,4.80,8.33,42.0,774.33,0.0
2022-11-13,22:25:00,DRY,1.95,8.40,42.0,774.00,0.0
2022-11-13,22:30:00,DRY,7.97,8.40,41.7,774.67,0.0
2022-11-13,22:35:00,DRY,6.45,8.45,41.5,775.00,0.0
2022-11-13,22:40:00,DRY,3.20,8.33,42.0,774.67,0.0
2022-11-13,22:45:00,DRY,5.10,8.40,42.0,775.00,0.0
2022-11-13,22:50:00,DRY,3.73,8.30,42.0,775.00,0.0
2022-11-13,22:55:00,DRY,6.40,8.40,41.5,774.50,0.0
2022-11-13,23:00:00,DRY,4.50,8.23,42.0,774.67,0.0
2022-11-13,23:05:00,DRY,4.75,8.20,43.0,775.00,0.0
2022-11-13,23:10:00,DRY,3.43,8.17,42.7,774.67,0.0
2022-11-13,23:15:00,DRY,3.45,8.30,42.5,775.00,0.0
2022-11-13,23:20:00,DRY,4.77,8.13,43.0,774.67,0.0
2022-11-13,23:25:00,DRY,4.75,8.15,42.5,775.00,0.0
2022-11-13,23:30:00,DRY,1.80,8.20,42.0,775.00,0.0
2022-11-13,23:35:00,DRY,5.70,8.30,42.0,774.50,0.0
2022-11-13,23:40:00,DRY,5.00,8.40,42.0,775.00,0.0
2022-11-13,23:45:00,DRY,3.90,8.35,41.5,775.00,0.0
2022-11-13,23:50:00,DRY,4.23,8.33,42.0,774.67,0.0
2022-11-13,23:55:00,DRY,3.00,8.35,42.0,775.00,0.0
2022-11-14,00:00:00,DRY,3.13,8.17,42.0,774.67,0.0
2022-11-14,00:05:00,DRY,5.35,8.20,42.0,775.00,0.0
2022-11-14,00:10:00,DRY,2.70,8.13,42.0,774.33,0.0
2022-11-14,00:15:00,DRY,2.60,8.15,42.0,774.50,0.0
2022-11-14,00:20:00,DRY,5.70,8.17,42.3,774.67,0.0
2022-11-14,00:25:00,DRY,2.65,8.20,42.0,774.50,0.0
2022-11-14,00:30:00,DRY,3.47,8.30,41.3,774.00,0.0
2022-11-14,00:35:00,DRY,3.20,8.20,42.0,775.00,0.0
2022-11-14,00:40:00,DRY,2.60,8.30,41.0,774.00,0.0
2022-11-14,00:45:00,DRY,3.00,8.15,41.5,774.00,0.0
2022-11-14,00:50:00,DRY,3.70,8.13,42.0,774.33,0.0
2022-11-14,00:55:00,DRY,2.40,8.25,41.0,774.50,0.0
2022-11-14,01:00:00,DRY,2.53,8.40,41.0,775.00,0.0
2022-11-14,01:05:00,DRY,2.90,8.35,41.5,774.00,0.0
2022-11-14,01:10:00,DRY,6.20,8.20,42.0,774.00,0.0
2022-11-14,01:15:00,DRY,2.75,8.20,42.5,774.00,0.0
2022-11-14,01:20:00,DRY,2.70,8.13,42.0,774.00,0.0
2022-11-14,01:25:00,DRY,3.75,8.15,42.0,774.00,0.0
2022-11-14,01:30:00,DRY,1.63,8.27,41.0,774.00,0.0
2022-11-14,01:35:00,DRY,3.20,8.25,40.5,774.00,0.0
2022-11-14,01:40:00,DRY,4.50,8.23,41.0,774.00,0.0
2022-11-14,01:45:00,DRY,4.65,8.35,40.5,774.00,0.0
2022-11-14,01:50:00,DRY,5.33,8.40,40.7,774.00,0.0
2022-11-14,01:55:00,DRY,3.05,8.45,40.0,774.00,0.0
2022-11-14,02:00:00,DRY,4.17,8.43,40.0,774.00,0.0
2022-11-14,02:05:00,DRY,6.20,8.40,41.0,774.00,0.0
2022-11-14,02:10:00,DRY,2.60,8.40,41.0,774.00,0.0
2022-11-14,02:15:00,DRY,2.20,8.30,41.0,774.00,0.0
2022-11-14,02:20:00,DRY,4.73,8.37,40.3,774.00,0.0
2022-11-14,02:25:00,DRY,4.60,8.50,40.0,774.00,0.0
2022-11-14,02:30:00,DRY,2.30,8.53,40.0,774.00,0.0
2022-11-14,02:35:00,DRY,3.25,8.50,40.0,774.00,0.0
2022-11-14,02:40:00,DRY,4.63,8.50,40.7,774.00,0.0
2022-11-14,02:45:00,DRY,6.25,8.50,41.0,774.00,0.0
2022-11-14,02:50:00,DRY,4.43,8.50,40.7,774.00,0.0
2022-11-14,02:55:00,DRY,6.55,8.45,41.0,774.00,0.0
2022-11-14,03:00:00,DRY,6.47,8.43,41.0,774.00,0.0
2022-11-14,03:05:00,DRY,4.90,8.50,41.0,773.50,0.0
2022-11-14,03:10:00,DRY,4.03,8.40,41.0,774.00,0.0
2022-11-14,03:15:00,DRY,5.00,8.35,41.0,774.00,0.0
2022-11-14,03:20:00,DRY,4.50,8.20,42.0,774.00,0.0
2022-11-14,03:25:00,DRY,4.15,8.35,42.5,774.00,0.0
2022-11-14,03:30:00,DRY,3.87,8.33,43.0,774.00,0.0
2022-11-14,03:35:00,DRY,4.50,8.35,43.0,774.00,0.0
2022-11-14,03:40:00,DRY,7.33,8.13,44.0,774.00,0.0
2022-11-14,03:45:00,DRY,3.55,8.40,44.0,774.00,0.0
2022-11-14,03:50:00,DRY,5.10,8.50,43.5,774.00,0.0
2022-11-14,03:55:00,DRY,1.95,8.40,44.0,774.00,0.0
2022-11-14,04:00:00,DRY,3.60,8.33,44.0,774.00,0.0
2022-11-14,04:05:00,DRY,4.05,8.25,45.0,774.00,0.0
2022-11-14,04:10:00,DRY,3.97,8.23,45.0,774.00,0.0
2022-11-14,04:15:00,DRY,2.90,8.30,45.0,774.00,0.0
2022-11-14,04:20:00,DRY,3.80,8.27,45.0,774.00,0.0
2022-11-14,04:25:00,DRY,3.90,8.30,45.0,774.00,0.0
2022-11-14,04:30:00,DRY,3.40,8.33,45.0,774.00,0.0
2022-11-14,04:35:00,DRY,7.30,8.40,45.0,774.00,0.0
2022-11-14,04:40:00,DRY,4.00,8.30,45.3,774.00,0.0
2022-11-14,04:45:00,DRY,3.35,8.30,46.0,773.50,0.0
2022-11-14,04:50:00,DRY,3.73,8.33,46.3,774.00,0.0
2022-11-14,04:55:00,DRY,2.60,8.20,47.0,774.00,0.0
2022-11-14,05:00:00,DRY,2.63,8.07,47.0,774.00,0.0
2022-11-14,05:05:00,DRY,4.70,8.00,47.0,774.00,0.0
2022-11-14,05:10:00,DRY,5.27,8.07,47.0,774.00,0.0
2022-11-14,05:15:00,DRY,3.95,8.10,47.0,774.00,0.0
2022-11-14,05:20:00,DRY,2.67,8.17,46.0,774.00,0.0
2022-11-14,05:25:00,DRY,5.40,8.30,46.0,774.00,0.0
2022-11-14,05:30:00,DRY,3.90,8.30,46.0,774.00,0.0
2022-11-14,05:35:00,DRY,5.85,8.40,45.0,774.00,0.0
2022-11-14,05:40:00,DRY,5.93,8.47,44.3,774.00,0.0
2022-11-14,05:45:00,DRY,2.50,8.55,44.5,774.00,0.0
2022-11-14,05:50:00,DRY,7.53,8.53,44.3,773.67,0.0
2022-11-14,05:55:00,DRY,5.55,8.45,45.5,774.00,0.0
2022-11-14,06:00:00,DRY,5.23,8.47,45.0,774.00,0.0
2022-11-14,06:05:00,DRY,8.05,8.40,45.0,774.00,0.0
2022-11-14,06:10:00,DRY,1.83,8.40,45.0,774.00,0.0
2022-11-14,06:15:00,DRY,2.00,8.35,45.5,774.00,0.0
2022-11-14,06:20:00,DRY,2.40,8.40,45.3,774.00,0.0
2022-11-14,06:25:00,DRY,7.95,8.45,45.0,774.00,0.0
2022-11-14,06:30:00,DRY,6.17,8.37,46.0,773.67,0.0
2022-11-14,06:35:00,DRY,3.45,8.50,45.0,774.00,0.0
2022-11-14,06:40:00,DRY,6.03,8.40,45.7,774.00,0.0
2022-11-14,06:45:00,DRY,8.10,8.50,45.0,774.00,0.0
2022-11-14,06:50:00,DRY,4.57,8.50,45.0,774.00,0.0
2022-11-14,06:55:00,DRY,5.05,8.45,44.5,774.00,0.0
2022-11-14,07:00:00,DRY,4.47,8.57,44.3,774.00,0.0
2022-11-14,07:05:00,DRY,2.65,8.45,45.0,774.00,0.0
2022-11-14,07:10:00,DRY,4.03,8.33,45.0,774.33,0.0
2022-11-14,07:15:00,DRY,3.85,8.45,45.0,774.00,0.0
2022-11-14,07:20:00,DRY,2.73,8.40,44.7,774.67,0.0
2022-11-14,07:25:00,DRY,3.35,8.45,43.5,774.50,0.0
2022-11-14,07:30:00,DRY,2.87,8.53,44.0,775.00,0.0
2022-11-14,07:35:00,DRY,6.35,8.50,43.5,775.00,0.5
2022-11-14,07:40:00,DRY,4.07,8.40,45.0,775.00,3.7
2022-11-14,07:45:00,DRY,3.85,8.25,45.0,775.00,8.0
2022-11-14,07:50:00,DRY,3.97,8.27,45.0,775.00,13.3
2022-11-14,07:55:00,DRY,5.20,8.35,45.0,775.00,18.0
2022-11-14,08:00:00,DRY,2.13,8.37,45.3,775.00,23.0
2022-11-14,08:05:00,DRY,5.70,8.45,44.5,775.00,28.0
2022-11-14,08:10:00,DRY,4.70,8.47,45.0,775.00,61.0
2022-11-14,08:15:00,DRY,5.05,8.55,45.0,775.00,107.5
2022-11-14,08:20:00,DRY,3.27,8.63,43.7,775.00,127.0
2022-11-14,08:25:00,DRY,7.55,8.75,43.5,775.00,149.0
2022-11-14,08:30:00,DRY,2.70,8.73,43.7,775.33,167.0
2022-11-14,08:35:00,DRY,3.25,8.85,43.0,776.00,187.0
2022-11-14,08:40:00,DRY,4.03,8.93,42.3,776.00,202.3
2022-11-14,08:45:00,DRY,5.50,9.00,42.0,776.00,221.5
2022-11-14,08:50:00,DRY,3.65,9.00,42.0,776.00,236.5
2022-11-14,08:55:00,DRY,6.10,9.10,41.5,776.00,257.5
2022-11-14,09:00:00,DRY,2.97,9.23,41.0,776.00,276.3
2022-11-14,09:05:00,DRY,4.25,9.35,41.0,776.00,293.5
2022-11-14,09:10:00,DRY,3.70,9.47,40.3,776.00,312.3
2022-11-14,09:15:00,DRY,3.90,9.50,40.0,776.00,328.5
2022-11-14,09:20:00,DRY,3.37,9.57,40.0,776.00,350.0
2022-11-14,09:25:00,DRY,2.40,9.65,40.0,776.00,367.0
2022-11-14,09:30:00,DRY,4.30,9.70,39.7,776.00,385.0
2022-11-14,09:35:00,DRY,4.90,9.85,40.0,776.00,403.5
2022-11-14,09:40:00,DRY,2.43,10.00,39.0,776.33,418.7
2022-11-14,09:45:00,DRY,5.10,10.05,39.0,776.00,435.0
2022-11-14,09:50:00,DRY,2.93,10.03,39.0,777.00,451.3
2022-11-14,09:55:00,DRY,1.70,10.15,39.0,776.50,467.5
2022-11-14,10:00:00,DRY,3.27,10.30,39.0,777.00,483.3
2022-11-14,10:05:00,DRY,2.30,10.40,39.0,776.50,497.0
2022-11-14,10:10:00,DRY,1.80,10.47,39.0,777.00,512.0
2022-11-14,10:15:00,DRY,4.20,10.45,39.0,777.00,526.0
2022-11-14,10:20:00,DRY,3.17,10.43,39.0,777.00,539.7
2022-11-14,10:25:00,DRY,2.60,10.30,40.0,777.00,555.0
2022-11-14,10:30:00,DRY,3.07,10.67,38.7,777.00,566.3
2022-11-14,10:35:00,DRY,2.05,10.85,38.5,777.00,580.0
2022-11-14,10:40:00,DRY,2.07,10.90,38.0,777.00,593.0
2022-11-14,10:45:00,DRY,5.05,11.00,38.0,777.00,606.0
2022-11-14,10:50:00,DRY,2.10,10.80,38.0,777.00,616.7
2022-11-14,10:55:00,DRY,1.50,11.00,38.0,777.00,626.5
2022-11-14,11:00:00,DRY,3.10,11.17,37.7,777.00,639.0
2022-11-14,11:05:00,DRY,3.65,11.40,37.0,777.00,650.0
2022-11-14,11:10:00,DRY,3.10,11.40,36.7,777.00,660.0
2022-11-14,11:15:00,DRY,2.50,11.35,37.5,777.00,668.0
2022-11-14,11:20:00,DRY,2.60,11.37,37.3,777.00,678.7
2022-11-14,11:25:00,DRY,3.25,11.50,37.0,777.00,684.0
2022-11-14,11:30:00,DRY,3.07,11.73,36.3,776.67,694.3
2022-11-14,11:35:00,DRY,2.90,11.55,37.5,777.00,701.0
2022-11-14,11:40:00,DRY,2.57,11.57,37.7,777.00,708.7
2022-11-14,11:45:00,DRY,3.15,11.65,37.0,777.00,714.0
2022-11-14,11:50:00,DRY,3.73,11.50,38.0,777.00,722.0
2022-11-14,11:55:00,DRY,2.20,11.35,37.5,777.00,726.5
2022-11-14,12:00:00,DRY,3.63,11.90,36.3,777.00,733.0
2022-11-14,12:05:00,DRY,2.10,12.20,36.0,777.00,738.0
2022-11-14,12:10:00,DRY,2.47,12.03,36.7,777.00,742.3
2022-11-14,12:15:00,DRY,2.70,11.70,37.0,777.00,747.0
2022-11-14,12:20:00,DRY,2.37,11.93,36.7,777.00,748.7
2022-11-14,12:25:00,DRY,2.55,12.15,36.5,777.00,749.0
2022-11-14,12:30:00,DRY,4.70,11.83,37.0,777.00,755.3
2022-11-14,12:35:00,DRY,0.70,12.25,36.0,777.00,751.5
2022-11-14,12:40:00,DRY,1.93,12.47,36.0,777.00,754.3
2022-11-14,12:45:00,DRY,2.35,12.55,34.0,777.00,754.0
2022-11-14,12:50:00,DRY,2.70,12.33,35.7,777.00,757.0
2022-11-14,12:55:00,DRY,2.75,11.95,37.0,777.00,754.5
2022-11-14,13:00:00,DRY,1.70,12.10,37.0,777.00,752.0
2022-11-14,13:05:00,DRY,1.70,12.30,36.5,777.00,747.5
2022-11-14,13:10:00,DRY,2.03,12.03,37.3,777.00,747.3
2022-11-14,13:15:00,DRY,1.60,12.25,38.5,776.50,746.0
2022-11-14,13:20:00,DRY,1.80,11.90,38.3,777.00,744.0
2022-11-14,13:25:00,DRY,1.70,12.25,37.0,776.50,749.0
2022-11-14,13:30:00,DRY,1.85,12.15,39.5,777.00,746.5
2022-11-14,13:35:00,DRY,1.60,12.20,40.0,776.00,741.0
2022-11-14,13:40:00,DRY,3.10,12.60,39.3,776.00,744.3
2022-11-14,13:45:00,DRY,2.80,11.95,40.0,776.00,735.0
2022-11-14,13:50:00,DRY,2.20,11.93,40.7,776.00,726.3
2022-11-14,13:55:00,DRY,0.50,12.25,40.0,776.00,720.5
2022-11-14,14:00:00,DRY,1.63,12.83,39.7,776.00,717.0
2022-11-14,14:05:00,DRY,1.55,12.55,40.5,776.00,712.5
2022-11-14,14:10:00,DRY,2.50,12.10,46.0,776.00,706.0
2022-11-14,14:15:00,DRY,1.95,11.85,46.0,776.00,704.0
2022-11-14,14:20:00,DRY,1.97,11.90,44.7,776.00,698.0
2022-11-14,14:25:00,DRY,1.60,12.15,43.0,776.00,690.0
2022-11-14,14:30:00,DRY,1.47,12.30,44.3,776.00,675.0
2022-11-14,14:35:00,DRY,1.60,11.80,47.5,776.00,671.0
2022-11-14,14:40:00,DRY,1.47,11.93,47.0,776.00,671.0
2022-11-14,14:45:00,DRY,2.25,11.90,48.0,776.00,661.0
2022-11-14,14:50:00,DRY,1.87,11.87,50.3,776.00,647.0
2022-11-14,14:55:00,DRY,1.25,11.40,53.5,776.00,640.5
2022-11-14,15:00:00,DRY,1.97,11.57,54.0,776.00,624.7
2022-11-14,15:05:00,DRY,1.40,11.80,53.0,776.00,610.5
2022-11-14,15:10:00,DRY,1.47,12.00,53.0,776.00,601.0
2022-11-14,15:15:00,DRY,0.80,12.35,54.5,776.00,596.0
2022-11-14,15:20:00,DRY,1.20,12.23,53.3,776.00,581.3
2022-11-14,15:25:00,DRY,1.60,12.50,54.0,776.00,574.0
2022-11-14,15:30:00,DRY,1.60,12.80,53.7,776.00,556.7
2022-11-14,15:35:00,DRY,1.30,12.85,53.5,776.00,547.0
2022-11-14,15:40:00,DRY,1.10,12.93,52.0,776.00,511.7
2022-11-14,15:45:00,DRY,1.70,12.60,56.5,776.00,105.0
2022-11-14,15:50:00,DRY,0.87,12.17,58.0,776.00,472.0
2022-11-14,15:55:00,DRY,0.80,11.95,56.0,776.00,332.0
2022-11-14,16:00:00,DRY,0.93,11.77,55.7,776.00,333.7
2022-11-14,16:05:00,DRY,1.75,11.85,58.5,776.00,98.5
2022-11-14,16:10:00,DRY,0.90,11.40,61.0,776.00,94.0
2022-11-14,16:15:00,DRY,1.40,10.90,62.0,776.00,82.0
2022-11-14,16:20:00,DRY,1.43,10.60,62.7,776.00,68.3
2022-11-14,16:25:00,DRY,2.60,10.25,64.5,776.00,66.5
2022-11-14,16:30:00,DRY,3.20,9.93,63.3,776.00,69.3
2022-11-14,16:35:00,DRY,2.00,9.75,62.5,776.00,67.5
2022-11-14,16:40:00,DRY,2.80,9.77,60.0,776.00,71.7
2022-11-14,16:45:00,DRY,1.95,9.60,59.0,776.00,65.5
2022-11-14,16:50:00,DRY,3.00,9.53,57.7,776.00,118.3
2022-11-14,16:55:00,DRY,2.70,9.65,55.5,776.00,60.0
2022-11-14,17:00:00,DRY,1.83,9.60,57.0,776.00,67.7
2022-11-14,17:05:00,DRY,1.85,9.65,59.0,776.00,205.0
2022-11-14,17:10:00,DRY,2.70,9.93,59.7,776.00,185.3
2022-11-14,17:15:00,DRY,2.60,9.90,57.0,776.00,167.0
2022-11-14,17:20:00,DRY,1.73,9.97,57.7,776.00,152.0
2022-11-14,17:25:00,DRY,0.70,10.25,58.5,776.00,127.5
2022-11-14,17:30:00,DRY,1.17,10.40,57.0,776.00,106.3
2022-11-14,17:35:00,DRY,1.40,10.35,55.5,776.00,89.0
2022-11-14,17:40:00,DRY,0.90,10.37,50.7,776.00,72.3
2022-11-14,17:45:00,DRY,0.35,10.70,41.5,776.00,56.0
2022-11-14,17:50:00,DRY,0.20,10.87,39.7,776.00,35.7
2022-11-14,17:55:00,DRY,0.50,11.00,47.0,776.00,24.5
2022-11-14,18:00:00,DRY,0.33,10.83,56.3,776.00,15.0
2022-11-14,18:05:00,DRY,0.15,10.55,55.0,776.00,9.5
2022-11-14,18:10:00,DRY,0.47,10.03,49.3,776.00,3.0
2022-11-14,18:15:00,DRY,0.30,9.55,54.0,776.00,0.0
2022-11-14,18:20:00,DRY,0.33,9.33,59.3,776.00,0.0
2022-11-14,18:25:00,DRY,0.20,9.15,62.0,776.00,0.0
2022-11-14,18:30:00,DRY,0.30,8.90,61.3,776.00,0.0
2022-11-14,18:35:00,DRY,0.50,8.75,61.5,776.00,0.0
2022-11-14,18:40:00,DRY,0.50,8.60,63.0,776.00,0.0
2022-11-14,18:45:00,DRY,0.45,8.60,68.0,776.00,0.0
2022-11-14,18:50:00,DRY,0.47,8.60,68.3,776.00,0.0
2022-11-14,18:55:00,DRY,0.20,8.60,66.0,776.00,0.0
2022-11-14,19:00:00,DRY,0.43,8.57,64.7,776.00,0.0
2022-11-14,19:05:00,DRY,1.25,8.50,63.5,776.00,0.0
2022-11-14,19:10:00,DRY,1.80,8.73,63.0,776.33,0.0
2022-11-14,19:15:00,DRY,1.55,8.70,64.0,776.50,0.0
2022-11-14,19:20:00,DRY,1.50,8.67,64.0,777.00,0.0
2022-11-14,19:25:00,DRY,1.75,8.65,63.5,777.00,0.0
2022-11-14,19:30:00,DRY,1.80,8.67,63.7,777.00,0.0
2022-11-14,19:35:00,DRY,1.80,8.70,63.0,777.00,0.0
2022-11-14,19:40:00,DRY,2.17,8.67,63.7,777.00,0.0
2022-11-14,19:45:00,DRY,1.90,8.60,64.5,777.00,0.0
2022-11-14,19:50:00,DRY,2.17,8.53,63.0,777.00,0.0
2022-11-14,19:55:00,DRY,1.55,8.50,56.5,777.00,0.0
2022-11-14,20:00:00,DRY,1.60,8.57,46.7,777.00,0.0
2022-11-14,20:05:00,DRY,1.75,8.70,45.0,777.00,0.0
2022-11-14,20:10:00,DRY,1.60,8.87,44.3,777.00,0.0
2022-11-14,20:15:00,DRY,1.10,8.85,44.0,777.00,0.0
2022-11-14,20:20:00,DRY,1.80,8.90,44.3,777.00,0.0
2022-11-14,20:25:00,DRY,1.55,9.05,43.5,777.00,0.0
2022-11-14,20:30:00,DRY,1.83,9.00,44.3,777.00,0.0
2022-11-14,20:35:00,DRY,1.15,8.85,46.5,777.00,0.0
2022-11-14,20:40:00,DRY,1.77,8.80,46.0,777.00,0.0
2022-11-14,20:45:00,DRY,3.40,8.75,52.0,777.00,0.0
2022-11-14,20:50:00,DRY,2.90,8.70,48.0,777.00,0.0
2022-11-14,20:55:00,DRY,3.70,8.55,49.5,777.00,0.0
2022-11-14,21:00:00,DRY,2.63,8.40,47.7,777.00,0.0
2022-11-14,21:05:00,DRY,3.95,8.40,47.5,777.00,0.0
2022-11-14,21:10:00,DRY,3.07,8.67,46.3,777.00,0.0